sat.trackr.live / text

‹ back to catalog

STARLINK-37141

NORAD 68249 · 2026-054T

PAYLOAD ACTIVE UNKNOWN

§ Identity

Operator
Country
US
Launch date
2026-03-17
Launch site
AFETR
Launch vehicle
Mass (kg)
RCS (m²)

Purposes: comms

External: N2YO · Heavens-Above · Gunter

§ Orbital elements

Epoch: 2026-09-19T23:10:47.597088Z

Period
93.85 min
Inclination
53.1590°
Eccentricity
0.0001455
Mean motion
15.34409927 rev/d
Perigee alt
461.7 km
Apogee alt
463.7 km
Semi-major
6,840.8 km
B*
3.1270e-4
RAAN
104.0186°
Arg perigee
115.3057°
Mean anomaly
244.8096°
Rev number
2,888

§ Raw data

STARLINK-371411 68249U 26054T   26262.96582867  .00010206  00000+0  31270-3 0  99992 68249  53.1590 104.0186 0001455 115.3057 244.8096 15.34409927 28884

JSON: /api/v1/satellites/68249 · /tle

For live sub-satellite position, see the globe view (requires WebGL).

§ Visibility from observer

Set your observer location to see the next 7 days of passes ≥ 10°. The values pass through the URL so the page stays shareable.

No JS? Fill the form by hand. The geolocation button needs JavaScript.